Location: Kouchibouguac National Park
(46.8081°N, 64.9088°W)
Time: 22:38:02
(UTC-03:00)

Amateur Radio Satellites - All Passes

Search period start: 23 April 2017 22:08
Search period end: 24 April 2017 22:08
Location: Kouchibouguac National Park, 46.8081°N, 64.9088°W

Satellite Date Start Highest point End Downlink Frequencies (MHz)
Time Altitude Azimuth
AAUSAT CUBESAT 2 23 Apr 22:14:58 22:15:57 11° 273° (W) 22:16:57 437.432
Oscar 11 23 Apr 22:22:22 22:25:42 22° 267° (W) 22:29:03 .
O/OREOS (USA 219) 23 Apr 22:22:37 22:26:21 25° 257° (WSW) 22:30:04 437.305
FO-29 23 Apr 22:28:50 22:31:51 15° 89° (E) 22:34:54 435.910
PRISM 23 Apr 22:29:18 22:32:52 27° 95° (E) 22:36:25 437.425
BEESAT 2 23 Apr 22:35:43 22:37:49 13° 30° (NNE) 22:39:52 435.950
NO-84 23 Apr 22:43:57 22:47:19 51° 331° (NNW) 22:50:24 435.350 FM
BEESAT 3 23 Apr 22:44:03 22:47:28 25° 40° (NE) 22:50:50 437.485
STRAND 1 23 Apr 22:48:02 22:50:31 14° 305° (NW) 22:52:59 437.568
LO-87 23 Apr 23:05:37 23:09:06 45° 73° (ENE) 23:12:37 145.935 - 145.965
ESTCUBE 1 23 Apr 23:12:59 23:17:05 36° 68° (ENE) 23:21:13 437.505/2401.250
TIGRISAT 23 Apr 23:14:17 23:18:25 47° 99° (E) 23:22:33 435.000
AO-85 23 Apr 23:25:12 23:28:47 32° 241° (WSW) 23:32:28 145.980
OBJECT BX 23 Apr 23:25:38 23:27:48 15° 269° (W) 23:29:57 145.990 - 145.960
DELFI C3 23 Apr 23:28:45 23:30:39 13° 271° (W) 23:32:33 145.870
UNISAT 6 23 Apr 23:34:24 23:38:41 84° 105° (ESE) 23:42:59 437.425
SPROUT 23 Apr 23:34:47 23:37:35 17° 62° (ENE) 23:40:24 437.525
VELOX 1 23 Apr 23:41:45 23:45:14 23° 63° (ENE) 23:48:44 145.980
50 SAT 24 Apr 00:03:01 00:05:20 17° 65° (ENE) 00:07:38 437.505
PRISM 24 Apr 00:04:29 00:08:09 30° 293° (WNW) 00:11:47 437.425
BEESAT 2 24 Apr 00:12:20 00:16:23 62° 51° (NE) 00:20:23 435.950
FO-29 24 Apr 00:12:24 00:17:34 72° 287° (WNW) 00:22:54 435.910
UKube-1 24 Apr 00:19:29 00:22:12 17° 60° (ENE) 00:24:56 .
BEESAT 3 24 Apr 00:21:22 00:25:14 45° 240° (WSW) 00:29:03 437.485
NO-84 24 Apr 00:22:57 00:25:20 19° 350° (N) 00:27:37 435.350 FM
POLYITAN 1 24 Apr 00:27:42 00:31:11 25° 94° (E) 00:34:38 437.675
QB50P2 24 Apr 00:33:55 00:37:41 31° 96° (E) 00:41:25 145.880/145.840
LO-87 24 Apr 00:40:51 00:42:49 14° 269° (W) 00:44:47 145.935 - 145.965
DX 1 24 Apr 00:43:56 00:47:58 37° 68° (ENE) 00:52:02 434.975-435.025
ESTCUBE 1 24 Apr 00:50:08 00:53:57 27° 266° (W) 00:57:48 437.505/2401.250
TIGRISAT 24 Apr 00:51:46 00:54:48 19° 297° (WNW) 00:57:50 435.000
NANOSAT C BR1 24 Apr 00:59:04 01:03:08 48° 100° (E) 01:07:11 145.865
AIST 2D 24 Apr 01:00:12 01:03:42 69° 285° (WNW) 01:07:11 435.315
SPROUT 24 Apr 01:08:53 01:13:05 55° 259° (W) 01:17:19 437.525
BUGSAT 1 24 Apr 01:11:27 01:14:22 19° 93° (E) 01:17:17 437.445
UNISAT 6 24 Apr 01:13:07 01:14:47 12° 301° (WNW) 01:16:27 437.425
VELOX 1 24 Apr 01:17:11 01:21:26 43° 262° (W) 01:25:44 145.980
EO-79 24 Apr 01:24:39 01:28:51 83° 285° (WNW) 01:33:02 145.935-145.965
DUCHIFAT 1 24 Apr 01:30:40 01:34:52 86° 280° (W) 01:39:01 145.980
Oscar 19 24 Apr 01:32:38 01:35:17 14° 88° (E) 01:37:55 437.125/150
BEESAT 24 Apr 01:34:25 01:35:12 10° 54° (NE) 01:36:00 436.000
50 SAT 24 Apr 01:34:47 01:38:01 36° 262° (W) 01:41:18 437.505
BEESAT 2 24 Apr 01:51:13 01:53:41 16° 249° (WSW) 01:56:09 435.950
UKube-1 24 Apr 01:53:30 01:57:47 61° 258° (WSW) 02:02:06 .
FO-29 24 Apr 02:00:12 02:01:48 11° 307° (NW) 02:03:24 435.910
NO-84 24 Apr 02:01:17 02:03:39 20° 12° (NNE) 02:05:56 435.350 FM
POLYITAN 1 24 Apr 02:03:14 02:07:01 33° 292° (WNW) 02:10:47 437.675
ITUPSAT 1 24 Apr 02:09:37 02:13:07 21° 61° (ENE) 02:16:39 437.325
QB50P2 24 Apr 02:09:50 02:13:23 27° 294° (WNW) 02:16:57 145.880/145.840
DX 1 24 Apr 02:20:40 02:24:15 24° 266° (W) 02:27:52 434.975-435.025
NANOSAT C BR1 24 Apr 02:35:36 02:38:31 19° 297° (WNW) 02:41:26 145.865
Gurwin Techsat 1B 24 Apr 02:45:44 02:50:40 37° 97° (E) 02:55:34 435.225
BUGSAT 1 24 Apr 02:46:08 02:49:54 39° 291° (WNW) 02:53:39 437.445
EO-79 24 Apr 03:03:20 03:03:54 10° 303° (WNW) 03:04:27 145.935-145.965
BEESAT 24 Apr 03:07:23 03:12:05 68° 72° (ENE) 03:16:49 436.000
DUCHIFAT 1 24 Apr 03:08:59 03:09:50 11° 303° (WNW) 03:10:39 145.980
Oscar 19 24 Apr 03:10:02 03:15:17 85° 287° (WNW) 03:20:29 437.125/150
MOZHAYETS 4 24 Apr 03:29:33 03:33:57 52° 71° (ENE) 03:38:24
PCSat 24 Apr 03:38:07 03:43:19 51° 116° (ESE) 03:48:36 145.827
NO-84 24 Apr 03:38:38 03:41:33 79° 35° (NE) 03:44:23 435.350 FM
ITUPSAT 1 24 Apr 03:45:56 03:50:35 54° 259° (W) 03:55:17 437.325
YUBILEINY 24 Apr 03:50:05 03:55:52 20° 76° (ENE) 04:01:40 435.215
KKS-1 24 Apr 04:05:45 04:09:29 26° 65° (ENE) 04:13:13 437.445
CUBESAT XI-V 24 Apr 04:12:28 04:16:24 28° 66° (ENE) 04:20:23 437.345
AO-7 24 Apr 04:14:01 04:21:34 37° 97° (E) 04:29:04 .
Gurwin Techsat 1B 24 Apr 04:25:48 04:30:34 34° 295° (WNW) 04:35:19 435.225
ITAMSAT 1 24 Apr 04:28:52 04:33:55 50° 100° (E) 04:38:55 435.822/435.867
STARS 24 Apr 04:46:16 04:50:07 30° 66° (ENE) 04:53:58 437.465
BEESAT 24 Apr 04:47:33 04:50:21 15° 270° (W) 04:53:09 436.000
Oscar 19 24 Apr 04:51:05 04:53:49 15° 305° (NW) 04:56:33 437.125/150
MOZHAYETS 4 24 Apr 05:08:15 05:11:26 19° 269° (W) 05:14:37
NO-84 24 Apr 05:17:48 05:18:35 11° 231° (SW) 05:19:22 435.350 FM
PCSat 24 Apr 05:22:07 05:26:58 32° 316° (NW) 05:31:51 145.827
KKS-1 24 Apr 05:41:44 05:45:53 37° 262° (W) 05:50:03 437.445
YUBILEINY 24 Apr 05:42:41 05:51:23 88° 98° (E) 06:00:09 435.215
CUBESAT XI-V 24 Apr 05:49:22 05:53:39 36° 263° (W) 05:57:59 437.345
AO-7 24 Apr 06:06:35 06:14:41 59° 297° (WNW) 06:22:47 .
ITAMSAT 1 24 Apr 06:08:54 06:13:06 26° 298° (WNW) 06:17:17 435.822/435.867
STARS 24 Apr 06:22:29 06:26:25 31° 264° (W) 06:30:21 437.465
XW-2D 24 Apr 06:39:41 06:42:21 18° 92° (E) 06:45:02 145.860 - 145.880
XW-2B 24 Apr 06:46:20 06:49:15 21° 93° (E) 06:52:10 145.730 - 145.750
STRAND 1 24 Apr 06:47:40 06:51:58 28° 63° (ENE) 06:56:16 437.568
M-CUBED/EXP-1 PRIME 24 Apr 06:51:23 06:55:44 42° 63° (ENE) 07:00:09 437.505
LilacSat-2 24 Apr 06:53:27 06:56:43 26° 95° (E) 06:59:59 437.200
CUTE-I 24 Apr 06:54:07 06:58:35 27° 94° (E) 07:03:01 437.470
XW-2C 24 Apr 06:57:48 07:01:06 28° 95° (E) 07:04:25 145.795 - 145.815
KAITUO 1B 24 Apr 07:03:05 07:06:17 25° 95° (E) 07:09:27 145.475/437.950
DOVE 4 24 Apr 07:06:37 07:11:20 57° 99° (E) 07:15:44 437.250
PCSat 24 Apr 07:10:33 07:12:10 11° 341° (NNW) 07:13:47 145.827
RS-15 24 Apr 07:21:19 07:31:20 32° 103° (ESE) 07:41:31 29.354- 29.394
XW-2F 24 Apr 07:25:20 07:29:04 56° 100° (E) 07:32:49 145.980 - 146.000
YUBILEINY 24 Apr 07:42:47 07:49:27 24° 301° (WNW) 07:56:09 435.215
NUDT-PHONESAT 24 Apr 07:46:07 07:49:50 82° 101° (ESE) 07:53:34 437.300
AO-7 24 Apr 08:00:54 08:05:48 17° 320° (NW) 08:10:43 .
SO-50 24 Apr 08:01:18 08:05:49 58° 122° (ESE) 08:10:19 436.795
CUTE 1.7 + AOD 2 24 Apr 08:08:04 08:11:39 25° 94° (E) 08:15:12 437.475
XW-2D 24 Apr 08:13:10 08:16:41 37° 289° (WNW) 08:20:14 145.860 - 145.880
AAUSAT CUBESAT 2 24 Apr 08:18:14 08:18:24 10° 87° (E) 08:18:33 437.432
XW-2B 24 Apr 08:20:06 08:23:31 33° 291° (WNW) 08:26:57 145.730 - 145.750
HO-68 24 Apr 08:25:21 08:32:10 43° 98° (E) 08:38:57 435.675
STRAND 1 24 Apr 08:26:06 08:30:58 43° 262° (W) 08:35:51 437.568
M-CUBED/EXP-1 PRIME 24 Apr 08:26:24 08:30:15 26° 261° (W) 08:34:12 437.505
LilacSat-2 24 Apr 08:27:43 08:30:57 26° 292° (WNW) 08:34:12 437.200
XW-2C 24 Apr 08:32:06 08:35:13 25° 293° (WNW) 08:38:21 145.795 - 145.815
SEEDS 24 Apr 08:33:41 08:37:29 30° 96° (E) 08:41:15 437.485
CUTE-I 24 Apr 08:33:46 08:38:50 47° 292° (WNW) 08:43:53 437.470
UWE-3 24 Apr 08:36:34 08:38:54 14° 90° (E) 08:41:13 435.000/436.395/437.385
KAITUO 1B 24 Apr 08:37:05 08:40:15 26° 292° (WNW) 08:43:25 145.475/437.950
CUBEBUG 2 24 Apr 08:42:31 08:46:03 26° 95° (E) 08:49:34 437.445
XW-2A 24 Apr 08:43:00 08:46:20 61° 101° (E) 08:49:39 145.665 - 145.685
DOVE 4 24 Apr 08:45:13 08:48:33 19° 300° (WNW) 08:51:45 437.250
FO-29 24 Apr 08:46:24 08:48:50 13° 54° (NE) 08:51:09 435.910
XW-2F 24 Apr 09:00:49 09:02:48 14° 298° (WNW) 09:04:46 145.980 - 146.000
UNISAT 6 24 Apr 09:01:57 09:03:57 13° 59° (ENE) 09:05:56 437.425
PRISM 24 Apr 09:21:06 09:24:42 29° 67° (ENE) 09:28:20 437.425
RS-15 24 Apr 09:30:20 09:42:31 85° 307° (NW) 09:55:01 29.354- 29.394
ZACube-1 24 Apr 09:37:34 09:41:28 36° 97° (E) 09:45:23 437.345
SO-50 24 Apr 09:42:45 09:46:36 26° 322° (NW) 09:50:27 436.795
CUTE 1.7 + AOD 2 24 Apr 09:43:39 09:47:32 34° 291° (WNW) 09:51:25 437.475
AO-73 24 Apr 09:46:09 09:50:08 40° 98° (E) 09:54:08 145.935
AAUSAT CUBESAT 2 24 Apr 09:50:13 09:54:26 84° 286° (WNW) 09:58:38 437.432
Tancredo 1 24 Apr 09:57:11 09:59:50 26° 141° (SE) 10:02:30 437.200
ISS 24 Apr 09:57:14 09:59:49 22° 139° (SE) 10:02:26 437.550
Oscar 11 24 Apr 10:05:14 10:09:31 55° 100° (E) 10:13:48 .
SEEDS 24 Apr 10:09:27 10:13:06 28° 293° (WNW) 10:16:45 437.485
UWE-3 24 Apr 10:11:37 10:15:43 57° 287° (WNW) 10:19:51 435.000/436.395/437.385
HO-68 24 Apr 10:13:12 10:19:54 44° 298° (WNW) 10:26:36 435.675
TIGRISAT 24 Apr 10:15:24 10:19:44 59° 73° (ENE) 10:23:59 435.000
XW-2A 24 Apr 10:18:12 10:18:37 10° 298° (WNW) 10:19:02 145.665 - 145.685
CUBEBUG 2 24 Apr 10:19:02 10:22:41 30° 292° (WNW) 10:26:21 437.445
FO-29 24 Apr 10:26:45 10:33:05 68° 72° (ENE) 10:38:43 435.910
UNISAT 6 24 Apr 10:35:40 10:40:05 80° 257° (WSW) 10:44:26 437.425
PCSat 24 Apr 10:40:14 10:44:07 19° 34° (NE) 10:47:59 145.827
EO-79 24 Apr 10:46:33 10:48:25 13° 59° (ENE) 10:50:16 145.935-145.965
OBJECT BX 24 Apr 10:49:51 10:53:16 36° 98° (E) 10:56:40 145.990 - 145.960
DUCHIFAT 1 24 Apr 10:52:17 10:53:53 12° 59° (ENE) 10:55:31 145.980
PRISM 24 Apr 10:56:21 10:59:56 28° 264° (W) 11:03:36 437.425
O/OREOS (USA 219) 24 Apr 10:58:26 11:02:14 26° 104° (ESE) 11:06:04 437.305
DELFI C3 24 Apr 11:00:15 11:04:16 66° 101° (ESE) 11:08:14 145.870
ZACube-1 24 Apr 11:14:15 11:17:35 23° 294° (WNW) 11:20:57 437.345
POLYITAN 1 24 Apr 11:22:52 11:26:28 28° 66° (ENE) 11:30:03 437.675
AO-73 24 Apr 11:22:59 11:26:09 21° 295° (WNW) 11:29:21 145.935
AAUSAT CUBESAT 2 24 Apr 11:28:35 11:29:11 10° 302° (WNW) 11:29:46 437.432
QB50P2 24 Apr 11:29:02 11:32:51 34° 68° (ENE) 11:36:41 145.880/145.840
Tancredo 1 24 Apr 11:32:31 11:35:36 58° 339° (NNW) 11:38:41 437.200
ISS 24 Apr 11:32:48 11:36:03 70° 338° (NNW) 11:39:18 437.550
AIST 2D 24 Apr 11:36:58 11:40:24 63° 75° (ENE) 11:43:52 435.315
Oscar 11 24 Apr 11:42:22 11:45:16 18° 298° (WNW) 11:48:10 .
RS-15 24 Apr 11:45:39 11:57:01 40° 337° (NNW) 12:08:27 29.354- 29.394
NANOSAT C BR1 24 Apr 11:53:31 11:57:36 51° 71° (ENE) 12:01:42 145.865
TIGRISAT 24 Apr 11:54:13 11:56:47 15° 270° (W) 11:59:20 435.000
LO-87 24 Apr 12:03:08 12:06:30 37° 98° (E) 12:09:49 145.935 - 145.965
BUGSAT 1 24 Apr 12:03:46 12:06:55 21° 65° (ENE) 12:10:04 437.445
HO-68 24 Apr 12:04:04 12:05:50 11° 320° (NW) 12:07:36 435.675
FO-29 24 Apr 12:13:54 12:18:33 21° 268° (W) 12:22:52 435.910
EO-79 24 Apr 12:19:21 12:23:35 79° 258° (WSW) 12:27:49 145.935-145.965
PCSat 24 Apr 12:22:57 12:28:26 77° 56° (NE) 12:33:52 145.827
OBJECT BX 24 Apr 12:24:09 12:26:43 18° 295° (WNW) 12:29:16 145.990 - 145.960
DUCHIFAT 1 24 Apr 12:24:45 12:28:57 83° 258° (WSW) 12:33:10 145.980
Gurwin Techsat 1B 24 Apr 12:33:17 12:35:48 14° 54° (NE) 12:38:19 435.225
DELFI C3 24 Apr 12:36:33 12:38:32 13° 299° (WNW) 12:40:32 145.870
O/OREOS (USA 219) 24 Apr 12:37:10 12:41:28 39° 303° (WNW) 12:45:49 437.305
ESTCUBE 1 24 Apr 12:38:38 12:43:06 51° 100° (E) 12:47:31 437.505/2401.250
Oscar 19 24 Apr 12:51:34 12:55:54 28° 63° (ENE) 13:00:18 437.125/150
SPROUT 24 Apr 12:52:14 12:55:23 20° 92° (E) 12:58:30 437.525
50 SAT 24 Apr 12:57:05 12:58:12 11° 90° (E) 12:59:19 437.505
POLYITAN 1 24 Apr 12:58:25 13:02:10 31° 264° (W) 13:05:55 437.675
VELOX 1 24 Apr 13:04:18 13:08:08 28° 95° (E) 13:11:56 145.980
QB50P2 24 Apr 13:05:12 13:08:42 25° 266° (W) 13:12:12 145.880/145.840
Tancredo 1 24 Apr 13:09:03 13:11:54 31° 359° (N) 13:14:44 437.200
ISS 24 Apr 13:09:51 13:12:52 33° 357° (N) 13:15:52 437.550
AO-7 24 Apr 13:27:33 13:32:46 19° 42° (NE) 13:37:58 .
NANOSAT C BR1 24 Apr 13:30:55 13:33:37 16° 269° (W) 13:36:20 145.865
LO-87 24 Apr 13:37:17 13:39:40 17° 295° (WNW) 13:42:03 145.935 - 145.965
BUGSAT 1 24 Apr 13:38:09 13:42:04 39° 262° (W) 13:45:57 437.445
UKube-1 24 Apr 13:38:25 13:41:21 18° 92° (E) 13:44:16 .
AO-85 24 Apr 13:41:59 13:45:50 33° 119° (ESE) 13:49:31 145.980
YUBILEINY 24 Apr 13:55:02 13:58:23 12° 47° (NE) 14:01:44 435.215
RS-15 24 Apr 14:02:47 14:13:48 35° 11° (N) 14:24:36 29.354- 29.394
DX 1 24 Apr 14:04:51 14:09:04 45° 100° (E) 14:13:15 434.975-435.025
PCSat 24 Apr 14:07:37 14:11:11 18° 255° (WSW) 14:14:45 145.827
Gurwin Techsat 1B 24 Apr 14:09:34 14:14:52 77° 73° (ENE) 14:20:13 435.225
ITAMSAT 1 24 Apr 14:12:48 14:16:03 17° 57° (ENE) 14:19:17 435.822/435.867
BEESAT 3 24 Apr 14:15:20 14:17:19 14° 110° (ESE) 14:19:19 437.485
ESTCUBE 1 24 Apr 14:16:14 14:19:33 20° 298° (WNW) 14:22:51 437.505/2401.250
SPROUT 24 Apr 14:27:28 14:31:29 42° 290° (WNW) 14:35:29 437.525
50 SAT 24 Apr 14:28:03 14:31:29 52° 287° (WNW) 14:34:52 437.505
Oscar 19 24 Apr 14:30:07 14:35:02 44° 262° (W) 14:40:00 437.125/150
VELOX 1 24 Apr 14:40:37 14:44:36 33° 293° (WNW) 14:48:33 145.980
Tancredo 1 24 Apr 14:45:10 14:48:13 53° 19° (NNE) 14:51:16 437.200
ISS 24 Apr 14:46:35 14:49:47 48° 17° (NNE) 14:52:57 437.550
SO-50 24 Apr 14:49:56 14:53:32 22° 35° (NE) 14:57:06 436.795
BEESAT 24 Apr 15:06:04 15:08:28 14° 89° (E) 15:10:52 436.000
UKube-1 24 Apr 15:13:28 15:17:40 50° 289° (WNW) 15:21:50 .
AO-7 24 Apr 15:15:53 15:24:01 64° 64° (ENE) 15:32:11 .
AO-85 24 Apr 15:22:28 15:26:14 31° 317° (NW) 15:29:50 145.980
DX 1 24 Apr 15:41:40 15:44:58 21° 297° (WNW) 15:48:14 434.975-435.025
ITUPSAT 1 24 Apr 15:43:30 15:47:43 30° 96° (E) 15:51:55 437.325
BEESAT 2 24 Apr 15:43:31 15:47:15 41° 120° (ESE) 15:51:03 435.950
YUBILEINY 24 Apr 15:49:15 15:57:46 52° 73° (ENE) 16:06:16 435.215
ITAMSAT 1 24 Apr 15:49:40 15:54:52 81° 256° (WSW) 16:00:06 435.822/435.867
BEESAT 3 24 Apr 15:50:25 15:54:22 70° 308° (NW) 15:58:23 437.485
Gurwin Techsat 1B 24 Apr 15:52:14 15:55:26 16° 271° (W) 15:58:38 435.225
RS-15 24 Apr 16:17:08 16:29:25 62° 42° (NE) 16:41:08 29.354- 29.394
Tancredo 1 24 Apr 16:21:15 16:24:03 30° 217° (SW) 16:26:49 437.200
ISS 24 Apr 16:23:09 16:26:13 38° 216° (SW) 16:29:16 437.550
SO-50 24 Apr 16:29:57 16:34:26 70° 236° (WSW) 16:38:54 436.795
DOVE 4 24 Apr 16:39:24 16:41:58 14° 57° (ENE) 16:44:31 437.250
BEESAT 24 Apr 16:42:02 16:46:48 77° 287° (WNW) 16:51:33 436.000
CUTE-I 24 Apr 16:44:07 16:44:47 10° 51° (NE) 16:45:27 437.470
MOZHAYETS 4 24 Apr 16:58:17 17:02:55 83° 103° (ESE) 17:07:33
AO-7 24 Apr 17:10:01 17:17:16 33° 264° (W) 17:24:36 .
HO-68 24 Apr 17:15:56 17:17:40 11° 40° (NE) 17:19:24 435.675
ITUPSAT 1 24 Apr 17:21:14 17:25:34 35° 294° (WNW) 17:29:53 437.325
BEESAT 2 24 Apr 17:21:43 17:25:09 27° 319° (NW) 17:28:38 435.950
XW-2D 24 Apr 17:24:29 17:26:33 14° 63° (ENE) 17:28:38 145.860 - 145.880
KKS-1 24 Apr 17:29:27 17:33:28 33° 96° (E) 17:37:28 437.445
BEESAT 3 24 Apr 17:30:31 17:32:42 14° 329° (NNW) 17:34:55 437.485
XW-2B 24 Apr 17:31:00 17:33:22 16° 64° (ENE) 17:35:45 145.730 - 145.750
ITAMSAT 1 24 Apr 17:33:35 17:35:09 11° 274° (W) 17:36:43 435.822/435.867
LilacSat-2 24 Apr 17:38:28 17:41:17 20° 66° (ENE) 17:44:07 437.200
XW-2C 24 Apr 17:42:11 17:45:03 21° 66° (ENE) 17:47:57 145.795 - 145.815
CUBESAT XI-V 24 Apr 17:42:24 17:46:56 44° 98° (E) 17:51:26 437.345
KAITUO 1B 24 Apr 17:46:22 17:49:01 19° 65° (ENE) 17:51:40 145.475/437.950
YUBILEINY 24 Apr 17:46:27 17:54:21 40° 275° (W) 18:02:18 435.215
STARS 24 Apr 18:08:19 18:12:23 36° 98° (E) 18:16:24 437.465
XW-2F 24 Apr 18:08:53 18:12:21 39° 71° (ENE) 18:15:52 145.980 - 146.000
DOVE 4 24 Apr 18:13:31 18:18:50 79° 75° (ENE) 18:24:05 437.250
CUTE-I 24 Apr 18:18:31 18:23:44 57° 70° (ENE) 18:28:59 437.470
BEESAT 24 Apr 18:22:08 18:23:46 12° 305° (NW) 18:25:23 436.000
NUDT-PHONESAT 24 Apr 18:27:56 18:31:31 54° 73° (ENE) 18:35:07 437.300
RS-15 24 Apr 18:30:14 18:41:47 51° 248° (WSW) 18:52:49 29.354- 29.394
MOZHAYETS 4 24 Apr 18:37:09 18:39:27 14° 302° (WNW) 18:41:45
XW-2D 24 Apr 18:56:42 19:00:20 51° 260° (W) 19:04:02 145.860 - 145.880
HO-68 24 Apr 18:56:57 19:03:36 44° 62° (ENE) 19:10:18 435.675
CUTE 1.7 + AOD 2 24 Apr 19:03:29 19:06:58 26° 66° (ENE) 19:10:29 437.475
XW-2B 24 Apr 19:03:39 19:07:14 44° 261° (W) 19:10:51 145.730 - 145.750
KKS-1 24 Apr 19:06:08 19:09:57 29° 295° (WNW) 19:13:45 437.445
AAUSAT CUBESAT 2 24 Apr 19:10:50 19:11:58 11° 58° (ENE) 19:13:06 437.432
LilacSat-2 24 Apr 19:11:56 19:15:22 33° 263° (W) 19:18:50 437.200
XW-2C 24 Apr 19:15:44 19:19:06 32° 264° (W) 19:22:30 145.795 - 145.815
XW-2A 24 Apr 19:17:06 19:20:06 31° 70° (ENE) 19:23:07 145.665 - 145.685
KAITUO 1B 24 Apr 19:19:24 19:22:49 35° 263° (W) 19:26:14 145.475/437.950
CUBESAT XI-V 24 Apr 19:20:16 19:24:03 24° 296° (WNW) 19:27:49 437.345
O/OREOS (USA 219) 24 Apr 19:26:44 19:29:08 14° 44° (NE) 19:31:32 437.305
SEEDS 24 Apr 19:28:00 19:31:40 30° 67° (ENE) 19:35:21 437.485
UWE-3 24 Apr 19:36:18 19:39:11 18° 63° (ENE) 19:42:02 435.000/436.395/437.385
CUBEBUG 2 24 Apr 19:43:08 19:47:02 32° 68° (ENE) 19:50:50 437.445
XW-2F 24 Apr 19:44:14 19:46:42 17° 268° (W) 19:49:09 145.980 - 146.000
STARS 24 Apr 19:44:59 19:48:34 25° 296° (WNW) 19:52:09 437.465
DOVE 4 24 Apr 19:53:53 19:57:03 16° 272° (W) 20:00:13 437.250
CUTE-I 24 Apr 20:00:04 20:04:09 22° 268° (W) 20:08:15 437.470
M-CUBED/EXP-1 PRIME 24 Apr 20:02:46 20:05:41 18° 95° (E) 20:08:26 437.505
NUDT-PHONESAT 24 Apr 20:04:16 20:05:46 12° 271° (W) 20:07:16 437.300
AO-85 24 Apr 20:30:41 20:32:41 13° 30° (NNE) 20:34:42 145.980
STRAND 1 24 Apr 20:33:14 20:38:13 51° 100° (E) 20:43:10 437.568
NO-84 24 Apr 20:35:41 20:38:24 20° 133° (SE) 20:40:58 435.350 FM
ZACube-1 24 Apr 20:35:59 20:39:55 40° 70° (ENE) 20:43:49 437.345
CUTE 1.7 + AOD 2 24 Apr 20:38:52 20:42:41 33° 264° (W) 20:46:32 437.475
AAUSAT CUBESAT 2 24 Apr 20:42:36 20:46:45 89° 281° (WNW) 20:50:57 437.432
AO-73 24 Apr 20:44:15 20:48:13 44° 71° (ENE) 20:52:11 145.935
HO-68 24 Apr 20:44:37 20:51:20 43° 262° (W) 20:58:08 435.675
RS-15 24 Apr 20:50:09 20:50:53 10° 272° (W) 20:51:36 29.354- 29.394
XW-2A 24 Apr 20:50:42 20:52:57 17° 267° (W) 20:55:12 145.665 - 145.685
Oscar 11 24 Apr 21:02:27 21:06:40 59° 73° (ENE) 21:10:56 .
SEEDS 24 Apr 21:03:45 21:07:21 27° 266° (W) 21:10:58 437.485
O/OREOS (USA 219) 24 Apr 21:04:42 21:09:20 83° 65° (ENE) 21:13:53 437.305
UWE-3 24 Apr 21:11:08 21:15:18 50° 260° (W) 21:19:25 435.000/436.395/437.385
CUBEBUG 2 24 Apr 21:19:56 21:23:40 27° 265° (W) 21:27:20 437.445
OBJECT BX 24 Apr 21:30:34 21:33:36 25° 68° (ENE) 21:36:37 145.990 - 145.960
M-CUBED/EXP-1 PRIME 24 Apr 21:36:14 21:40:27 50° 295° (WNW) 21:44:21 437.505
DELFI C3 24 Apr 21:48:03 21:51:56 54° 72° (ENE) 21:55:51 145.870
